CW0498 Weather Reports


Display with metric or nautical units.
time (UTC)temp
F
wind
direction
speed
MPH
gust
MPH
rain 1hr
in
rain 24hr
in
rain mn
in
humidity
%
barometer
mb
20260506073054 64 0 0.0 1.0 0.00 0.00 0.00 78 1013.4
20260506071541 65 0 0.0 0.0 0.00 0.00 0.00 76 1013.2
20260506061555 66 146 0.0 1.0 0.00 0.00 0.00 70 1014.2
20260506050105 66 0 0.0 0.0 0.00 0.00 0.00 64 1014.0
20260506044551 67 0 0.0 0.0 0.00 0.00 0.00 63 1013.6
20260506043043 67 0 0.0 0.0 0.00 0.00 0.00 62 1014.2
20260506041540 68 0 0.0 0.0 0.00 0.00 0.00 61 1014.2
20260506040100 68 0 0.0 1.0 0.00 0.00 0.00 60 1014.0
20260506034601 68 0 0.0 1.0 0.00 0.00 0.00 59 1014.1
20260506033047 68 0 0.0 1.0 0.00 0.00 0.00 58 1014.1
20260506031549 69 0 0.0 1.0 0.00 0.00 0.00 56 1014.0
20260506030055 69 0 0.0 1.0 0.00 0.00 0.00 55 1014.2
20260506024549 69 0 0.0 1.0 0.00 0.00 0.00 55 1014.4
20260506023050 68 0 0.0 0.0 0.00 0.00 0.00 55 1014.4
20260506021559 69 0 0.0 0.0 0.00 0.00 0.00 55 1014.2
20260506020044 69 0 0.0 0.0 0.00 0.00 0.00 54 1013.8
20260506014544 70 0 0.0 1.0 0.00 0.00 0.00 54 1014.0
20260506013053 70 0 0.0 1.0 0.00 0.00 0.00 54 1013.9
20260506011601 70 0 0.0 1.0 0.00 0.00 0.00 54 1013.9
20260506010039 70 0 0.0 1.0 0.00 0.00 0.00 53 1013.8
20260506004543 70 0 0.0 0.0 0.00 0.00 0.00 53 1013.9
20260506003043 72 0 0.0 0.0 0.00 0.00 0.00 51 1014.1
20260506001546 72 0 0.0 1.0 0.00 0.00 0.00 49 1014.1
20260506000046 73 0 0.0 0.0 0.00 0.00 0.00 48 1014.1
20260505234539 74 0 0.0 0.0 0.00 0.00 0.00 47 1013.8
20260505233045 75 0 0.0 1.0 0.00 0.00 0.00 46 1014.0
20260505231603 75 0 0.0 1.0 0.00 0.00 0.00 45 1014.1
20260505230050 77 0 0.0 2.0 0.00 0.00 0.00 43 1013.9
20260505224549 78 0 0.0 2.0 0.00 0.00 0.00 43 1013.7
20260505223042 77 0 0.0 2.0 0.00 0.00 0.00 43 1013.7
20260505221540 77 133 0.0 3.0 0.00 0.00 0.00 42 1013.8
20260505220041 77 0 1.0 5.0 0.00 0.00 0.00 42 1013.6
20260505214603 77 90 1.0 3.0 0.00 0.00 0.00 41 1013.4
20260505213043 78 227 0.0 3.0 0.00 0.00 0.00 43 1013.7
20260505211538 79 0 0.0 2.0 0.00 0.00 0.00 42 1013.9
20260505210039 80 262 0.0 2.0 0.00 0.00 0.00 41 1013.9
20260505204546 81 131 0.0 3.0 0.00 0.00 0.00 39 1014.1
20260505203046 82 245 1.0 5.0 0.00 0.00 0.00 40 1014.2
20260505201543 82 0 0.0 5.0 0.00 0.00 0.00 42 1014.4
20260505200055 82 354 0.0 2.0 0.00 0.00 0.00 40 1014.6
20260505194538 82 0 0.0 3.0 0.00 0.00 0.00 42 1015.0
20260505193038 81 255 0.0 3.0 0.00 0.00 0.00 43 1015.2
20260505191544 80 153 1.0 3.0 0.00 0.00 0.00 41 1015.2
20260505190043 80 239 1.0 3.0 0.00 0.00 0.00 41 1015.3
20260505184545 80 0 0.0 3.0 0.00 0.00 0.00 44 1015.3
20260505183054 79 0 0.0 2.0 0.00 0.00 0.00 47 1015.4
20260505181539 78 245 0.0 2.0 0.00 0.00 0.00 45 1015.5
20260505180046 77 0 0.0 3.0 0.00 0.00 0.00 49 1015.9
20260505174555 77 229 1.0 5.0 0.00 0.00 0.00 45 1016.0
20260505173044 77 0 0.0 3.0 0.00 0.00 0.00 47 1016.3
20260505171548 75 186 0.0 9.0 0.00 0.00 0.00 50 1016.2
20260505170044 74 237 0.0 3.0 0.00 0.00 0.00 50 1016.4
20260505164538 74 202 0.0 3.0 0.00 0.00 0.00 51 1016.4
20260505163038 74 0 0.0 4.0 0.00 0.00 0.00 51 1016.2
20260505161545 73 237 1.0 3.0 0.00 0.00 0.00 52 1016.3
20260505153040 71 186 1.0 3.0 0.00 0.00 0.00 60 1016.7
20260505151538 70 272 1.0 3.0 0.00 0.00 0.00 61 1016.7
20260505140106 62 0 0.0 1.0 0.00 0.00 0.00 78 1016.5
20260505124544 52 0 0.0 0.0 0.00 0.00 0.00 92 1016.3
20260505123048 51 0 0.0 0.0 0.00 0.00 0.00 92 1016.2
20260505121541 50 0 0.0 0.0 0.00 0.00 0.00 92 1015.9
20260505120046 49 0 0.0 0.0 0.00 0.00 0.00 92 1015.8
20260505114551 48 0 0.0 0.0 0.00 0.00 0.00 92 1015.8
20260505113041 47 0 0.0 0.0 0.00 0.00 0.00 92 1015.5
20260505111539 47 0 0.0 0.0 0.00 0.00 0.00 92 1015.4
20260505101553 47 0 0.0 0.0 0.00 0.00 0.00 92 1015.2
20260505100049 47 0 0.0 0.0 0.00 0.00 0.00 92 1015.3
20260505094543 47 0 0.0 0.0 0.00 0.00 0.00 92 1015.3
20260505093052 47 0 0.0 0.0 0.00 0.00 0.00 92 1015.0
20260505091547 48 0 0.0 0.0 0.00 0.00 0.00 91 1015.2
20260505090047 48 0 0.0 0.0 0.00 0.00 0.00 91 1015.5
20260505084549 48 0 0.0 0.0 0.00 0.00 0.00 91 1015.4
20260505083057 48 0 0.0 0.0 0.00 0.00 0.00 91 1015.5
20260505081604 49 0 0.0 0.0 0.00 0.00 0.00 90 1015.4